sat.trackr.live / text

‹ back to catalog

STARLINK-36538

NORAD 67512 · 2026-012V

PAYLOAD ACTIVE UNKNOWN

§ Identity

Operator
Country
US
Launch date
2026-01-18
Launch site
AFETR
Launch vehicle
Mass (kg)
RCS (m²)

Purposes: comms

External: N2YO · Heavens-Above · Gunter

§ Orbital elements

Epoch: 2026-09-19T09:27:06.003072Z

Period
94.27 min
Inclination
43.0000°
Eccentricity
0.0001158
Mean motion
15.27583211 rev/d
Perigee alt
482.2 km
Apogee alt
483.8 km
Semi-major
6,861.2 km
B*
3.4896e-4
RAAN
300.7002°
Arg perigee
272.3034°
Mean anomaly
87.7685°
Rev number
3,738

§ Raw data

STARLINK-365381 67512U 26012V   26262.39381948  .00009354  00000+0  34896-3 0  99982 67512  43.0000 300.7002 0001158 272.3034  87.7685 15.27583211 37385

JSON: /api/v1/satellites/67512 · /tle

For live sub-satellite position, see the globe view (requires WebGL).

§ Visibility from observer

Set your observer location to see the next 7 days of passes ≥ 10°. The values pass through the URL so the page stays shareable.

No JS? Fill the form by hand. The geolocation button needs JavaScript.